Hourly Data Report for November 13, 2017

All times are specified in Local Standard Time (LST). Add 1 hour to adjust for Daylight Saving Time where and when it is observed.

GREENWOOD A
NOVA SCOTIA

44°59'00.000" N
64°55'00.000" W
28.00 m
8202000
71397
YZX

Download Data

Hourly Data (November 2017)
Hourly Data Report for November 13, 2017
Temp Definition
°C
Dew Point Temp Definition
°C
Rel Hum Definition
%
Wind Dir Definition
10's deg

Wind Spd Definition
km/h
Visibility Definition
km
Stn Press Definition
kPa
Hmdx Definition


Wind Chill Definition


Weather Definition


TIME
00:00 -2.0 -5.1 79   0 24.1 102.90     Mainly Clear
01:00 -2.3 -5.8 77   0 24.1 102.88     Mainly Clear
02:00 -1.9 -4.4 83   0 24.1 102.86     Mainly Clear
03:00 -3.0 -5.1 85   0 24.1 102.87     Mainly Clear
04:00 -4.2 -5.9 88   0 24.1 102.86     Mainly Clear
05:00 -4.2 -5.6 90 4 4 24.1 102.86   -6 Mainly Clear
06:00 -4.3 -5.4 92   0 24.1 102.84     Mainly Clear
07:00 -3.2 -4.5 91 3 6 24.1 102.85   -6 Mostly Cloudy
08:00 -3.0 -4.2 91 7 6 24.1 102.85   -5 Mostly Cloudy
09:00 -1.6 -3.1 89 5 4 24.1 102.83   -3 Mostly Cloudy
10:00 0.6 -1.6 85 7 7 24.1 102.78     Mainly Clear
11:00 3.8 -1.1 70 8 4 24.1 102.75     Mostly Cloudy
12:00 5.2 0.9 74 2 4 24.1 102.65     Mostly Cloudy
13:00 6.9 1.1 67   0 24.1 102.56     Mostly Cloudy
14:00 7.4 0.7 62 27 6 24.1 102.46     Mostly Cloudy
15:00 7.9 0.2 58 24 6 24.1 102.45     Mostly Cloudy
16:00 7.7 0.0 58 22 9 24.1 102.45     Mostly Cloudy
17:00 6.9 -0.2 61 19 6 24.1 102.45     Mostly Cloudy
18:00 5.6 0.3 69 36 4 24.1 102.43     Mostly Cloudy
19:00 4.8 0.4 73 13 6 24.1 102.39     Mostly Cloudy
20:00 4.2 0.5 77 9 4 24.1 102.34     Cloudy
21:00 4.0 0.8 80   0 24.1 102.32     Cloudy
22:00 4.5 1.1 79   0 24.1 102.30     Cloudy
23:00 4.2 1.5 83   0 24.1 102.20     Cloudy

Notes on Data Quality.

Legend

  • E = Estimated
  • M = Missing
  • NA = Not Available
  • ‡ = Partner data that is not subject to review by the National Climate Archives
Date modified: